Year,Month,Day,Hour,Minute,Value (Times are PST for temperature in C)
2018,03,24,15,36,7.40
2018,03,24,15,37,7.50
2018,03,24,15,38,7.50
2018,03,24,15,39,7.60
2018,03,24,15,40,7.70
2018,03,24,15,41,7.70
2018,03,24,15,42,7.80
2018,03,24,15,43,7.90
2018,03,24,15,44,7.90
2018,03,24,15,45,8.00
2018,03,24,15,46,8.00
2018,03,24,15,47,8.00
2018,03,24,15,48,7.90
2018,03,24,15,49,7.90
2018,03,24,15,50,7.90
2018,03,24,15,51,7.80
2018,03,24,15,52,7.60
2018,03,24,15,53,7.60
2018,03,24,15,54,7.70
2018,03,24,15,55,7.70
2018,03,24,15,56,7.80
2018,03,24,15,57,7.80
2018,03,24,15,58,7.80
2018,03,24,15,59,7.80
2018,03,24,16,00,7.80
2018,03,24,16,01,7.60
2018,03,24,16,02,7.60
2018,03,24,16,03,7.50
2018,03,24,16,04,7.40
2018,03,24,16,05,7.40
2018,03,24,16,06,7.40
2018,03,24,16,07,7.40
2018,03,24,16,08,7.50
2018,03,24,16,09,7.50
2018,03,24,16,10,7.50
2018,03,24,16,11,7.50
2018,03,24,16,12,7.50
2018,03,24,16,13,7.40
2018,03,24,16,14,7.40
2018,03,24,16,15,7.50
2018,03,24,16,16,7.60
2018,03,24,16,17,7.60
2018,03,24,16,18,7.50
2018,03,24,16,19,7.50
2018,03,24,16,20,7.60
2018,03,24,16,21,7.60
2018,03,24,16,22,7.60
2018,03,24,16,23,7.60
2018,03,24,16,24,7.70
2018,03,24,16,25,7.80
2018,03,24,16,26,7.90
2018,03,24,16,27,7.90
2018,03,24,16,28,7.90
2018,03,24,16,29,7.80
2018,03,24,16,30,7.80
2018,03,24,16,31,7.80
2018,03,24,16,32,7.80
2018,03,24,16,33,7.70
2018,03,24,16,34,7.60
2018,03,24,16,35,7.60
2018,03,24,16,36,7.50
2018,03,24,16,37,7.50
2018,03,24,16,38,7.60
2018,03,24,16,39,7.70
2018,03,24,16,40,7.70
2018,03,24,16,41,7.70
2018,03,24,16,42,7.60
2018,03,24,16,43,7.60
2018,03,24,16,44,7.60
2018,03,24,16,45,7.60
2018,03,24,16,46,7.60
2018,03,24,16,47,7.60
2018,03,24,16,48,7.60
2018,03,24,16,49,7.60
2018,03,24,16,50,7.60
2018,03,24,16,51,7.70
2018,03,24,16,52,7.70
2018,03,24,16,53,7.70
2018,03,24,16,54,7.70
2018,03,24,16,55,7.60
2018,03,24,16,56,7.50
2018,03,24,16,57,7.40
2018,03,24,16,58,7.40
2018,03,24,16,59,7.40
2018,03,24,17,00,7.40
2018,03,24,17,01,7.50
2018,03,24,17,02,7.60
2018,03,24,17,03,7.60
2018,03,24,17,04,7.60
2018,03,24,17,05,7.50
2018,03,24,17,06,7.50
2018,03,24,17,07,7.50
2018,03,24,17,08,7.50
2018,03,24,17,09,7.50
2018,03,24,17,10,7.50
2018,03,24,17,11,7.50
2018,03,24,17,12,7.50
2018,03,24,17,13,7.50
2018,03,24,17,14,7.50
2018,03,24,17,15,7.50
2018,03,24,17,16,7.50
2018,03,24,17,17,7.50
2018,03,24,17,18,7.40
2018,03,24,17,19,7.50
2018,03,24,17,20,7.50
2018,03,24,17,21,7.50
2018,03,24,17,22,7.50
2018,03,24,17,23,7.50
2018,03,24,17,24,7.50
2018,03,24,17,25,7.50
2018,03,24,17,26,7.50
2018,03,24,17,27,7.40
2018,03,24,17,28,7.40
2018,03,24,17,29,7.40
2018,03,24,17,30,7.40
2018,03,24,17,31,7.40
2018,03,24,17,32,7.40
2018,03,24,17,33,7.50
2018,03,24,17,34,7.50
2018,03,24,17,35,7.60
2018,03,24,17,36,7.60
2018,03,24,17,37,7.60
2018,03,24,17,38,7.60
2018,03,24,17,39,7.70
2018,03,24,17,40,7.70
2018,03,24,17,41,7.70
2018,03,24,17,42,7.70
2018,03,24,17,43,7.70
2018,03,24,17,44,7.70
2018,03,24,17,45,7.70
2018,03,24,17,46,7.60
2018,03,24,17,47,7.60
2018,03,24,17,48,7.50
2018,03,24,17,49,7.40
2018,03,24,17,50,7.30
2018,03,24,17,51,7.30
2018,03,24,17,52,7.30
2018,03,24,17,53,7.20
2018,03,24,17,54,7.20
2018,03,24,17,55,7.20
2018,03,24,17,56,7.20
2018,03,24,17,57,7.20
2018,03,24,17,58,7.20
2018,03,24,17,59,7.20
2018,03,24,18,00,7.20
2018,03,24,18,01,7.30
2018,03,24,18,02,7.30
2018,03,24,18,03,7.30
2018,03,24,18,04,7.30
2018,03,24,18,05,7.20
2018,03,24,18,06,7.20
2018,03,24,18,07,7.20
2018,03,24,18,08,7.10
2018,03,24,18,09,7.00
2018,03,24,18,10,7.00
2018,03,24,18,11,6.90
2018,03,24,18,12,6.90
2018,03,24,18,13,6.80
2018,03,24,18,14,6.80
2018,03,24,18,15,6.80
2018,03,24,18,16,6.70
2018,03,24,18,17,6.70
2018,03,24,18,18,6.70
2018,03,24,18,19,6.70
2018,03,24,18,20,6.70
2018,03,24,18,21,6.70
2018,03,24,18,22,6.70
2018,03,24,18,23,6.70
2018,03,24,18,24,6.70
2018,03,24,18,25,6.70
2018,03,24,18,26,6.70
2018,03,24,18,27,6.70
2018,03,24,18,28,6.70
2018,03,24,18,29,6.80
2018,03,24,18,30,6.80
2018,03,24,18,31,6.80
2018,03,24,18,32,6.90
2018,03,24,18,33,6.90
2018,03,24,18,34,7.00
2018,03,24,18,35,7.00
2018,03,24,18,36,7.10
2018,03,24,18,37,7.10
2018,03,24,18,38,7.10
2018,03,24,18,39,7.10
2018,03,24,18,40,7.10
2018,03,24,18,41,7.10
2018,03,24,18,42,7.10
2018,03,24,18,43,7.10
2018,03,24,18,44,7.10
2018,03,24,18,45,7.10
2018,03,24,18,46,7.10
2018,03,24,18,47,7.10
2018,03,24,18,48,7.10
2018,03,24,18,49,7.10
2018,03,24,18,50,7.00
2018,03,24,18,51,6.90
2018,03,24,18,52,6.90
2018,03,24,18,53,6.90
2018,03,24,18,54,6.90
2018,03,24,18,55,6.90
2018,03,24,18,56,6.90
2018,03,24,18,57,6.90
2018,03,24,18,58,6.90
2018,03,24,18,59,6.90
2018,03,24,19,00,6.80
2018,03,24,19,01,6.80
2018,03,24,19,02,6.80
2018,03,24,19,03,6.80
2018,03,24,19,04,6.80
2018,03,24,19,05,6.80
2018,03,24,19,06,6.80
2018,03,24,19,07,6.80
2018,03,24,19,08,6.80
2018,03,24,19,09,6.80
2018,03,24,19,10,6.80
2018,03,24,19,11,6.80
2018,03,24,19,12,6.80
2018,03,24,19,13,6.80
2018,03,24,19,14,6.80
2018,03,24,19,15,6.70
2018,03,24,19,16,6.70
2018,03,24,19,17,6.70
2018,03,24,19,18,6.70
2018,03,24,19,19,6.60
2018,03,24,19,20,6.60
2018,03,24,19,21,6.60
2018,03,24,19,22,6.60
2018,03,24,19,23,6.60
2018,03,24,19,24,6.60
2018,03,24,19,25,6.60
2018,03,24,19,26,6.50
2018,03,24,19,27,6.50
2018,03,24,19,28,6.50
2018,03,24,19,29,6.50
2018,03,24,19,30,6.40
2018,03,24,19,31,6.40
2018,03,24,19,32,6.40
2018,03,24,19,33,6.40
2018,03,24,19,34,6.40
2018,03,24,19,35,6.40
2018,03,24,19,36,6.40
2018,03,24,19,37,6.30
2018,03,24,19,38,6.30
2018,03,24,19,39,6.30
2018,03,24,19,40,6.30
2018,03,24,19,41,6.30
2018,03,24,19,42,6.30
2018,03,24,19,43,6.30
2018,03,24,19,44,6.30
2018,03,24,19,45,6.30
2018,03,24,19,46,6.30
2018,03,24,19,47,6.20
2018,03,24,19,48,6.20
2018,03,24,19,49,6.20
2018,03,24,19,50,6.20
2018,03,24,19,51,6.20
2018,03,24,19,52,6.20
2018,03,24,19,53,6.10
2018,03,24,19,54,6.10
2018,03,24,19,55,6.10
2018,03,24,19,56,6.10
2018,03,24,19,57,6.10
2018,03,24,19,58,6.10
2018,03,24,19,59,6.10
2018,03,24,20,00,6.10
2018,03,24,20,01,6.10
2018,03,24,20,02,6.10
2018,03,24,20,03,6.10
2018,03,24,20,04,6.10
2018,03,24,20,05,6.10
2018,03,24,20,06,6.10
2018,03,24,20,07,6.00
2018,03,24,20,08,6.00
2018,03,24,20,09,6.00
2018,03,24,20,10,6.00
2018,03,24,20,11,6.00
2018,03,24,20,12,6.00
2018,03,24,20,13,6.00
2018,03,24,20,14,5.90
2018,03,24,20,15,5.90
2018,03,24,20,16,5.90
2018,03,24,20,17,5.90
2018,03,24,20,18,5.90
2018,03,24,20,19,5.90
2018,03,24,20,20,5.80
2018,03,24,20,21,5.80
2018,03,24,20,22,5.80
2018,03,24,20,23,5.80
2018,03,24,20,24,5.80
2018,03,24,20,25,5.80
2018,03,24,20,26,5.80
2018,03,24,20,27,5.80
2018,03,24,20,28,5.80
2018,03,24,20,29,5.80
2018,03,24,20,30,5.70
2018,03,24,20,31,5.70
2018,03,24,20,32,5.70
2018,03,24,20,33,5.70
2018,03,24,20,34,5.70
2018,03,24,20,35,5.70
2018,03,24,20,36,5.70
2018,03,24,20,37,5.70
2018,03,24,20,38,5.70
2018,03,24,20,39,5.70
2018,03,24,20,40,5.60
2018,03,24,20,41,5.60
2018,03,24,20,42,5.60
2018,03,24,20,43,5.60
2018,03,24,20,44,5.60
2018,03,24,20,45,5.60
2018,03,24,20,46,5.60
2018,03,24,20,47,5.60
2018,03,24,20,48,5.60
2018,03,24,20,49,5.60
2018,03,24,20,50,5.60
2018,03,24,20,51,5.60
2018,03,24,20,52,5.60
2018,03,24,20,53,5.60
2018,03,24,20,54,5.60
2018,03,24,20,55,5.60
2018,03,24,20,56,5.60
2018,03,24,20,57,5.60
2018,03,24,20,58,5.60
2018,03,24,20,59,5.60
2018,03,24,21,00,5.60
2018,03,24,21,01,5.60
2018,03,24,21,02,5.60
2018,03,24,21,03,5.60
2018,03,24,21,04,5.60
2018,03,24,21,05,5.60
2018,03,24,21,06,5.60
2018,03,24,21,07,5.60
2018,03,24,21,08,5.60
2018,03,24,21,09,5.60
2018,03,24,21,10,5.60
2018,03,24,21,11,5.60
